User: anonymous   Login
Location: Cluj-Napoca
(46.7712°N, 23.6236°E)
Time: 05:44:24
(UTC+02:00)
Language:

AO-73 - Orbit

View from above orbital plane
View from above orbital plane
View from above satellite
View from above satellite

Ground track
Ground track

The orbit data is extracted from the following two-line orbital elements,

1 39444U 13066AE  21332.91798615  .00000850  00000-0  10905-3 0  9998
2 39444  97.6018 311.2878 0056832 332.8931  26.9318 14.82638408431809
Epoch (UTC): 28 November 2021 22:01:54
Eccentricity: 0.0056832
inclination: 97.6018°
perigee height: 581 km
apogee height: 661 km
right ascension of ascending node: 311.2878°
argument of perigee: 332.8931°
revolutions per day: 14.82638408
mean anomaly at epoch: 26.9318°
orbit number at epoch: 43180

The dashed part of the orbit path shows where the satellite is in the earth's shadow,  

DLR